Regional Weather Roundup
Issued by NWS Mobile, AL

Home | Current Version | Previous Version | Text Only | Print | Product List | Glossary On
Versions: 1 2 3 4 5 6 7 8 9 10 11 12 13 14 15 16 17 18 19 20 21 22 23 24 25 26 27
000
ASUS44 KMOB 181712
RWRMOB
REGIONAL WEATHER ROUNDUP
NATIONAL WEATHER SERVICE MOBILE AL
1100 AM CST MON DEC 18 2017

NOTE: "FAIR" INDICATES FEW OR NO CLOUDS BELOW 12,000 FEET WITH NO
      SIGNIFICANT WEATHER AND/OR OBSTRUCTIONS TO VISIBILITY.

  * THESE STATIONS ARE PART OF THE UNIVERSITY OF SOUTH ALABAMA
    MESONET AND ARE NOT UNDER NWS OR FAA QUALITY CONTROL.

ALZ061>064-181800-
COASTAL ALABAMA

CITY           SKY/WX    TMP DP  RH WIND       PRES   REMARKS
MOBILE REG APT CLOUDY    67  66  97 VRB3      30.23F FOG
BROOKLEY FIELD CLOUDY    67  66  97 N6        30.24S FOG
USA CAMPUS*    NOT AVBL
DOG RIVER*     NOT AVBL


CITY           SKY/WX    TMP DP  RH WIND       PRES   REMARKS
GULF SHORES    CLOUDY    73  71  96 W13       30.22S

$$

ALZ051>060-181800-
INTERIOR SOUTHWEST AND SOUTH CENTRAL ALABAMA

CITY           SKY/WX    TMP DP  RH WIND       PRES   REMARKS
GREENVILLE     PTSUNNY   64  59  83 CALM      30.21F
EVERGREEN      CLOUDY    64  62  93 NE3       30.23F
ATMORE*          N/A    N/A N/A N/A CALM        N/A
ANDALUSIA/OPP  LGT RAIN  67  63  87 N3        30.22F FOG
ANDALUSIA*       N/A     63  63 100 CALM      30.23F
FLORALA APT    RAIN      70  67  90 CALM      30.24S FOG
FLORALA*         N/A     70  68  94 SW3       30.97S

$$

FLZ001>006-181800-
WESTERN FLORIDA PANHANDLE

CITY           SKY/WX    TMP DP  RH WIND       PRES   REMARKS
PENSACOLA      CLOUDY    75  70  84 W8        30.21F
NAS PENSACOLA  PTSUNNY   72  70  93 NW5       30.21F
MILTON         CLOUDY    69  68  96 N3        30.22F FOG
WHTNG S FIELD  CLOUDY    72  69  90 NW6       30.22F FOG


CITY           SKY/WX    TMP DP  RH WIND       PRES   REMARKS
JAY*             N/A     64  64 100 N3        30.23F
DUKE FIELD     CLOUDY    73  71  96 W8        30.21S
CRESTVIEW      CLOUDY    70  69  97 W5        30.23S
VALPARAISO     CLOUDY    74  72  95 W7        30.21S FOG
DESTIN         CLOUDY    76  71  85 VRB7      30.21S

$$

MSZ076-079-181800-
INTERIOR SOUTHEAST MISSISSIPPI

CITY           SKY/WX    TMP DP  RH WIND       PRES   REMARKS
LEAKESVILLE*     N/A     59  59 100 NE3       30.25R
AGRICOLA*        N/A     66  66 100 CALM      30.23R

$$

MARINE OBSERVATIONS

STATION/POSITION TIME  TEMP    WIND        PRES    WAVE
                       AIR SEA DIR/SP/G            HT/PER
                 (UTC) (F)     (DEG/KT/KT) (MB)    (FT/S)
PASCAGOULA       1648   63     180/  4/  4 1023.5R
PETIT BOIS ISLND 1648   64      90/  3/  4 1024.3S
KATRINA CUT      1630   61      50/  5     1024.4R
CEDAR POINT      1630   65      40/  6     1023.7R
E DAUPHIN ISLAND 1600   60     360/  3/  4 1023.2R
MIDDLE BAY LIGHT 1630   61     340/  9     1023.7R
USCG MOBILE BAY  1648   64 56   40/  6/  8 1023.7F
STATE DOCKS      1648   65 56              1023.4F
MEAHER PARK      1630   64     350/  5     1024.4R
WEEKS BAY        1545   68                 1023.0S
FORT MORGAN      1648   66      10/  6/  6   N/A
12 S ORANGE BCH  NOT AVBL
PENSACOLA BAY    1648   72 55              1023.3F
64 S DAUPHIN ISL 1700   75 75  220/  8/ 10 1023.1
67 S FORT MORGAN 1630   75                 1023.0S

$$

SELECTED LOCATIONS ACROSS THE REGION

CITY           SKY/WX    TMP DP  RH WIND       PRES   REMARKS
NEW ORLEANS    DRIZZLE   66  66 100 CALM      30.23S FOG
GULFPORT       CLOUDY    68  67  96 E3        30.22S FOG
PASCAGOULA AP  CLOUDY    69  66  90 CALM      30.23S FOG
PASCAGOULA*    NOT AVBL
HATTIESBURG    LGT RAIN  60  60 100 CALM      30.25F FOG
LAUREL         LGT RAIN  58  57  97 SE6       30.26R
MERIDIAN       LGT RAIN  57  55  93 CALM      30.24F
JACKSON        CLOUDY    63  58  83 CALM      30.21F
MONTGOMERY     FOG       58  55  90 CALM      30.24F VSB 1
TROY           RAIN      62  62 100 VRB3      30.24F
ASHFORD*         N/A     63  63 100 CALM      30.23F
DOTHAN         CLOUDY    71  70  96 W6        30.24S
PANAMA CITY    CLOUDY    74  72  93 W7        30.21S FOG

$$





USA.gov is the U.S. government's official web portal to all federal, state and local government web resources and services.